Wetbulb
50.13 45.71 43.04 46.26 48.29 47.46 46.31 45.71 45.13 48.95 51.53 49.81 49.05 49.47 50.01 54.19 53.99 52.88 52.22 50.02 52.28 54.40 57.30 59.22 57.74 57.21 56.81 57.38 55.38 55.86 54.74 55.69 57.40 58.16 58.72 59.25 57.66 59.20 60.30 62.55 63.14 64.07 63.58 63.09
47.26 44.36 49.01 50.20 49.62 47.55 46.47 44.45 44.93 47.46 50.38 48.56 47.40 47.33 52.60 54.40 54.43 54.49 52.91 52.65 53.00 54.92 56.77 57.21 57.45 57.65 58.23 57.09 56.85 58.04 57.50 59.02 60.35 60.63 59.39 59.69 59.09 59.29 60.93 63.06 63.92 63.89 63.41 62.71
44.80 47.73 51.45 49.30 47.43 45.62 45.20 44.10 44.86 45.26 48.16 49.42 47.25 45.23 47.66 53.83 55.02 55.91 56.28 56.37 55.99 55.64 56.48 57.05 57.44 57.97 58.33 56.77 57.20 58.09 59.45 60.29 61.27 61.81 61.49 60.51 60.39 59.48 60.03 61.27 62.75 63.25 63.35 62.66
47.43 50.47 49.26 48.27 46.49 46.50 42.21 47.36 47.13 46.40 44.98 40.30 48.06 38.93 45.86 50.87 51.65 54.00 55.24 55.63 55.94 56.46 57.36 58.21 58.07 57.44 58.06 58.88 59.25 59.40 59.88 60.28 61.54 62.63 62.33 59.44 58.19 57.61 60.17 61.34 61.74 62.33 63.06 62.44
46.22 47.63 47.28 46.58 45.81 47.24 44.74 49.48 47.94 47.08 44.31 44.74 44.41 41.36 44.09 48.68 47.94 52.14 54.86 56.23 56.95 57.55 57.61 57.81 58.52 59.06 59.09 60.20 60.33 60.69 60.77 61.44 62.07 62.49 62.95 61.42 59.24 60.64 62.37 61.47 61.55 61.23 61.22 60.47
48.15 51.70 49.96 49.31 49.05 49.09 50.14 48.37 48.10 47.12 44.63 38.39 43.48 42.22 42.57 45.44 47.67 50.29 53.90 56.49 57.38 57.49 58.19 58.77 59.91 60.55 60.42 60.64 61.08 61.70 61.59 62.07 62.75 63.08 62.99 62.11 59.67 60.75 60.86 60.34 59.39 59.61 58.42 57.88
46.10 46.98 50.25 50.63 46.75 49.28 48.21 45.16 38.13 36.68 36.97 36.46 45.04 42.30 44.56 48.61 50.66 51.51 52.14 53.53 57.36 58.05 57.90 58.47 58.67 59.46 60.48 60.59 60.69 61.60 62.01 61.65 62.75 63.06 63.15 62.87 62.22 61.57 60.39 59.69 59.81 58.80 57.00 56.90
41.02 39.62 46.80 49.86 47.70 46.07 46.05 44.99 39.17 31.13 31.62 37.05 44.50 39.84 43.77 50.77 51.88 52.36 52.67 54.05 56.24 57.84 58.25 58.55 58.83 59.88 60.40 61.32 61.64 61.65 61.52 61.26 62.12 63.00 63.11 63.13 63.01 61.65 61.45 61.01 60.21 58.68 57.85 57.81
41.34 41.91 48.86 49.70 49.62 49.07 46.02 42.75 47.45 40.14 40.09 36.15 39.66 44.73 47.93 50.16 49.64 50.28 51.13 53.29 54.56 55.65 58.06 58.74 59.29 59.68 61.20 61.73 62.23 62.46 62.47 62.15 62.48 62.62 63.63 62.80 62.60 61.90 61.23 60.54 61.05 59.02 58.57 57.08
46.09 40.71 47.42 48.63 49.95 49.53 47.13 49.45 42.44 43.20 34.07 32.49 39.23 40.76 41.85 46.29 47.46 49.84 50.06 52.03 55.30 57.20 56.66 58.44 58.44 59.51 60.76 62.59 63.56 63.79 63.37 61.91 63.29 63.44 64.05 62.96 62.55 60.82 60.10 60.80 60.36 59.44 57.48 53.14
47.72 44.85 44.03 48.02 45.44 43.92 45.03 43.72 45.82 45.77 43.21 35.91 34.58 39.43 47.56 46.48 47.90 49.95 51.25 52.60 53.98 55.60 57.83 58.01 58.70 59.71 60.54 61.41 62.51 63.71 63.88 63.79 63.27 63.50 63.42 62.58 62.03 61.10 61.43 61.27 60.75 59.86 53.89 53.30
48.11 45.96 40.39 43.20 48.37 49.27 47.51 45.72 45.73 40.43 39.07 42.57 41.59 39.96 50.87 51.38 50.91 52.36 52.88 53.20 54.28 55.89 56.74 58.47 59.45 59.86 59.66 60.19 61.93 64.11 64.72 64.28 63.58 63.50 63.33 62.57 61.28 60.30 59.85 59.76 59.69 56.10 54.15 53.17
48.39 43.31 37.51 40.43 45.43 48.11 44.98 46.16 47.28 46.80 46.05 41.18 36.10 39.53 50.59 50.88 50.52 51.96 51.28 52.44 53.55 54.23 55.17 57.47 59.33 59.94 60.54 60.77 61.38 62.94 63.99 64.31 63.30 63.38 62.61 61.94 59.58 60.19 59.59 59.24 57.60 55.15 53.98 53.11
49.43 45.45 41.66 37.02 41.22 45.76 43.22 44.95 47.07 46.23 40.24 40.45 39.90 43.63 47.81 49.60 49.49 50.34 52.20 52.37 53.14 54.45 54.44 55.72 58.43 60.00 61.12 61.58 61.78 62.16 63.14 63.93 63.29 63.27 62.02 60.34 58.79 58.04 56.24 55.19 54.42 53.96 53.59 51.82
49.49 42.14 43.91 44.99 45.56 45.46 45.23 44.44 44.65 44.23 45.29 41.38 44.02 43.77 46.57 49.19 50.07 49.77 52.71 53.61 53.44 53.42 53.99 54.84 57.20 59.69 61.14 61.90 62.22 62.65 62.87 61.85 62.31 62.02 59.62 57.70 57.27 56.29 54.87 53.91 53.28 52.33 51.54 50.79
49.36 42.15 44.45 42.29 45.36 44.65 42.65 45.03 45.70 45.18 45.00 44.67 45.18 44.79 50.31 50.99 50.38 50.90 51.60 51.88 52.12 52.72 53.09 54.28 56.17 59.95 60.53 61.06 61.21 61.28 59.65 60.05 60.20 59.12 56.64 57.22 56.68 55.30 54.77 53.34 52.23 50.08 47.53 44.68
45.40 43.95 41.83 38.01 43.99 42.88 37.09 42.93 44.26 45.65 46.79 45.64 42.00 46.92 49.93 49.34 50.49 51.15 51.88 51.81 51.91 52.85 54.63 56.18 57.02 59.52 60.07 60.41 59.94 58.66 58.42 58.82 57.87 55.48 55.04 55.49 54.72 53.01 50.50 48.58 46.63 44.20 43.01 42.62
44.81 43.88 42.87 37.88 39.33 30.95 42.89 48.22 47.39 45.49 46.13 47.29 47.44 48.36 49.41 49.95 51.38 52.83 53.92 53.86 53.44 54.36 55.18 56.60 57.98 58.40 58.66 58.72 57.92 56.81 56.75 55.23 53.74 52.81 52.03 51.69 50.24 48.15 46.62 45.65 43.92 43.09 42.54 41.40
46.61 43.86 39.47 36.50 35.89 40.42 42.60 45.77 45.40 44.43 44.02 48.76 47.82 48.64 50.08 50.95 51.80 52.33 54.19 55.47 55.21 55.28 55.64 56.09 56.57 56.78 56.21 55.02 54.84 53.89 52.85 52.19 51.23 50.11 49.88 49.32 48.23 46.35 45.43 43.79 42.99 42.66 42.31 41.64
42.76 43.63 39.28 39.49 34.04 31.41 42.43 47.62 49.86 49.22 39.90 50.12 49.97 49.63 50.02 51.40 45.84 49.85 52.93 54.83 54.44 55.09 55.24 54.46 54.42 54.00 53.25 52.96 52.52 51.03 49.77 49.16 48.10 48.20 47.99 48.11 47.49 46.51 45.05 44.64 44.27 44.10 44.06 43.15
37.17 38.30 35.84 37.86 36.26 41.01 47.38 48.82 49.72 38.73 41.95 52.25 52.01 51.60 51.28 50.93 52.28 53.66 53.63 53.47 54.04 53.79 53.14 53.13 52.45 51.19 51.18 51.40 50.63 48.57 47.91 46.82 47.83 48.08 47.85 47.48 46.73 44.73 44.16 43.59 43.67 43.21 42.52 41.70
37.23 35.44 36.44 38.89 36.45 33.59 49.97 48.94 43.43 49.31 51.37 54.24 52.82 53.41 54.30 54.44 53.33 52.50 52.36 51.92 51.70 51.18 51.29 51.51 50.29 49.74 50.32 50.51 49.34 47.40 46.17 47.41 47.55 46.90 45.97 45.06 44.25 44.09 44.39 43.17 41.79 41.41 39.93 37.53
37.56 40.80 38.63 40.77 41.29 45.14 47.65 49.52 52.76 54.33 53.45 54.50 53.69 55.11 54.94 53.65 52.21 51.72 50.68 50.61 50.49 50.52 49.91 50.78 49.51 48.71 49.28 49.61 48.70 46.30 46.18 46.62 45.24 43.99 43.10 42.87 42.37 42.01 41.47 39.57 38.68 37.98 37.36 34.18
43.78 46.50 41.59 40.78 43.54 44.65 47.13 51.79 53.61 53.94 54.27 54.67 54.91 55.27 55.19 53.16 52.26 50.70 50.24 49.89 49.29 49.59 49.34 49.72 48.63 47.61 47.24 48.25 48.08 46.24 45.29 44.83 43.82 41.42 40.03 39.67 38.55 38.24 38.09 36.95 36.17 34.72 31.71 30.59
44.18 44.61 43.41 43.42 45.61 47.14 48.70 50.29 51.67 53.73 55.09 54.90 54.82 54.23 53.14 53.95 52.20 50.99 49.91 49.21 49.03 48.67 48.89 48.84 47.39 46.59 46.30 46.36 45.09 44.97 44.63 43.32 40.84 39.48 38.40 36.63 35.87 35.15 33.41 29.87 30.87 28.42 26.76 27.56
46.58 44.70 42.67 41.46 47.35 48.55 49.55 52.13 53.28 52.65 52.16 52.93 54.09 53.03 53.59 53.94 52.74 51.59 49.86 49.50 48.87 48.31 48.19 47.33 46.86 45.27 44.41 43.91 42.82 42.74 42.55 41.29 38.64 36.43 34.78 33.05 32.92 32.21 33.01 29.87 27.36 29.25 27.45 26.87
MSLP
1006.08 1006.07 1005.23 1004.39 1003.68 1003.15 1002.77 1002.62 1002.20 1002.27 1002.92 1003.40 1003.86 1005.18 1007.31 1006.66 1006.93 1007.56 1007.70 1008.79 1009.59 1010.29 1010.88 1011.86 1012.82 1014.02 1014.80 1015.59 1016.35 1016.86 1017.80 1018.40 1018.73 1018.76 1018.38 1018.24 1018.43 1018.58 1018.70 1018.87 1019.12 1019.32 1019.55 1019.84
1005.45 1004.51 1004.25 1003.74 1003.11 1002.65 1002.32 1002.24 1001.79 1001.42 1001.82 1002.45 1002.59 1002.78 1003.83 1004.19 1004.87 1005.90 1006.81 1007.76 1008.55 1009.39 1010.29 1011.25 1012.36 1013.35 1014.01 1014.90 1015.65 1016.08 1016.57 1016.99 1017.34 1017.61 1017.78 1017.77 1017.84 1018.04 1018.36 1018.60 1018.82 1018.97 1019.41 1019.56
1004.27 1003.36 1003.02 1002.93 1002.66 1002.39 1002.49 1002.25 1001.82 1002.04 1002.37 1001.95 1002.09 1002.03 1001.97 1003.30 1003.65 1004.34 1005.18 1006.00 1006.68 1007.54 1008.99 1010.19 1011.34 1012.33 1013.18 1014.20 1014.97 1015.39 1015.80 1016.21 1016.56 1016.76 1016.82 1016.82 1017.20 1017.48 1017.84 1018.10 1018.44 1018.73 1018.91 1019.31
1003.35 1002.95 1002.37 1002.45 1002.41 1002.38 1002.23 1002.07 1002.14 1002.55 1002.33 1001.67 1001.83 1001.25 1001.15 1001.77 1002.33 1003.17 1003.86 1004.64 1005.32 1006.02 1007.20 1008.68 1010.13 1011.37 1012.20 1013.01 1013.96 1014.48 1014.82 1015.08 1015.41 1015.70 1015.83 1016.01 1016.45 1016.74 1016.77 1017.17 1017.79 1018.13 1018.29 1018.81
1002.69 1002.34 1002.07 1002.03 1002.00 1001.93 1002.08 1002.52 1002.83 1002.65 1002.48 1002.06 1001.41 1001.21 1000.00 1000.74 1001.03 1001.74 1002.43 1003.25 1003.91 1004.80 1005.68 1006.89 1008.13 1009.40 1010.71 1011.66 1012.39 1013.07 1013.61 1013.83 1014.46 1015.07 1015.28 1015.49 1015.77 1016.05 1016.41 1016.72 1017.16 1017.64 1017.98 1018.37
1002.16 1001.76 1001.56 1001.48 1001.75 1001.72 1001.79 1002.66 1003.15 1003.14 1003.01 1002.52 1001.70 1001.07 1000.71 1000.81 1001.00 1000.49 1000.94 1001.85 1002.87 1003.60 1004.29 1005.26 1006.45 1007.76 1009.03 1010.16 1011.16 1011.95 1012.43 1012.72 1013.33 1014.08 1014.76 1015.21 1015.68 1015.72 1015.96 1016.93 1017.48 1017.41 1017.94 1018.54
1001.96 1001.38 1001.01 1001.17 1001.36 1001.43 1001.91 1002.55 1003.06 1003.51 1003.52 1002.92 1002.04 1000.79 999.72 1000.22 1000.28 1000.06 999.95 1000.51 1001.34 1002.39 1003.30 1003.91 1004.82 1005.97 1007.10 1008.38 1009.55 1010.45 1011.21 1011.66 1012.12 1013.02 1013.72 1014.03 1014.28 1015.19 1015.68 1015.89 1016.85 1017.94 1017.85 1018.26
1001.50 1000.96 1000.71 1000.98 1000.93 1000.98 1001.82 1002.52 1003.18 1004.62 1005.66 1004.50 1003.01 1000.93 999.50 998.92 999.15 999.31 999.50 999.76 1000.20 1001.02 1001.93 1002.80 1003.44 1004.32 1005.46 1006.62 1007.92 1009.08 1009.86 1010.57 1011.19 1011.77 1012.63 1012.81 1012.90 1013.80 1014.89 1015.43 1016.00 1016.86 1017.17 1017.60
1000.99 1000.36 1000.33 1000.59 1000.96 1001.21 1001.31 1001.94 1002.81 1005.12 1007.07 1006.62 1004.81 1001.32 999.38 998.97 999.10 999.34 999.42 999.67 1000.02 1000.09 1000.71 1001.28 1001.99 1002.37 1003.49 1005.00 1006.19 1007.35 1008.39 1009.38 1010.14 1010.74 1011.48 1012.14 1012.47 1013.17 1014.24 1015.11 1015.51 1016.05 1016.39 1017.02
1000.73 1000.65 1000.18 1000.30 1000.61 1000.92 1001.00 1001.73 1002.38 1003.19 1004.69 1004.58 1002.35 1001.02 1000.00 999.78 999.48 999.20 999.54 999.42 999.70 999.96 1000.04 1000.36 1000.99 1001.61 1001.50 1002.82 1004.12 1005.61 1006.72 1007.38 1008.72 1009.86 1010.90 1011.74 1012.62 1013.31 1013.98 1014.81 1015.13 1015.54 1016.08 1016.92
1000.64 1000.79 1000.96 1000.12 999.71 1000.26 1000.89 1001.14 1001.93 1002.70 1002.93 1003.21 1002.58 1001.40 1001.43 1001.68 1000.28 999.33 999.36 999.51 999.72 1000.08 1000.33 1000.54 1000.82 1001.04 1001.52 1002.44 1002.68 1003.96 1005.39 1006.71 1007.72 1008.68 1010.18 1011.25 1012.16 1013.01 1013.67 1014.15 1014.65 1015.09 1015.86 1016.66
1000.15 1000.54 1000.63 1000.80 1000.10 1000.56 1000.68 1000.56 1001.37 1001.82 1002.36 1002.87 1002.84 1001.52 1000.12 1000.07 999.84 999.36 999.50 999.56 999.75 1000.11 1000.42 1000.85 1001.35 1001.64 1001.83 1002.15 1002.71 1003.59 1004.76 1006.07 1007.08 1008.45 1009.48 1010.57 1011.22 1012.49 1013.07 1013.66 1014.33 1014.95 1015.57 1016.23
999.66 1000.14 1000.90 1000.37 1000.51 999.94 1000.05 1000.11 1000.36 1001.17 1001.56 1001.83 1002.48 1001.57 999.86 999.46 999.46 999.38 999.34 999.19 999.35 999.93 1000.34 1000.85 1001.52 1002.08 1002.41 1002.69 1003.01 1003.49 1004.31 1005.27 1006.92 1008.06 1009.08 1010.27 1011.12 1011.97 1012.64 1013.32 1014.06 1014.72 1015.40 1016.17
999.32 999.94 1000.07 1000.18 999.87 999.93 999.83 999.58 999.92 1000.63 1000.84 1001.23 1001.36 1000.59 999.97 999.31 999.50 999.58 999.21 998.82 998.94 999.43 1000.01 1000.57 1001.21 1002.11 1002.66 1003.11 1003.56 1004.02 1004.73 1005.39 1006.60 1007.80 1008.91 1010.07 1011.43 1012.10 1012.90 1013.73 1014.41 1014.95 1015.57 1016.16
999.86 999.99 1000.58 1000.33 999.98 999.56 999.34 999.32 999.31 999.65 1000.26 999.76 999.91 999.43 998.99 998.67 999.02 999.87 999.89 998.63 999.05 999.44 1000.03 1000.37 1001.02 1001.88 1002.88 1003.58 1004.04 1004.56 1005.57 1006.37 1007.02 1007.85 1009.38 1010.48 1011.32 1012.44 1013.30 1014.06 1014.73 1015.27 1015.80 1016.32
1000.31 1000.34 1000.90 1000.52 1000.29 999.70 999.09 998.51 998.50 998.47 998.67 998.46 998.40 998.04 997.94 997.84 998.37 998.91 999.51 998.73 999.19 999.70 1000.04 1000.61 1001.19 1001.98 1003.21 1004.29 1004.93 1005.57 1006.52 1007.20 1007.80 1008.69 1009.91 1010.79 1011.80 1012.58 1013.41 1014.11 1014.86 1015.38 1016.09 1016.70
1001.19 1000.93 1001.32 1000.80 1000.73 1000.34 998.92 998.25 997.80 997.67 997.68 997.50 997.24 997.23 997.21 997.27 997.43 997.92 997.86 997.97 998.77 999.47 1000.33 1001.21 1001.71 1002.22 1003.34 1004.48 1005.39 1006.38 1007.21 1007.89 1008.40 1009.16 1010.10 1010.90 1011.85 1012.78 1013.65 1014.38 1015.11 1015.96 1016.63 1017.16
1001.25 1001.73 1001.73 1001.73 1001.56 999.94 998.48 998.18 997.56 997.19 997.22 997.01 996.79 996.60 996.54 996.68 996.88 996.94 997.58 998.25 999.04 999.79 1000.81 1001.78 1002.52 1003.26 1004.09 1005.11 1006.13 1007.08 1007.82 1008.37 1009.08 1009.76 1010.65 1011.48 1012.36 1013.29 1014.16 1014.89 1015.73 1016.34 1016.91 1017.55
1003.18 1003.17 1002.79 1002.30 1001.64 1000.42 998.62 998.08 997.53 997.06 997.14 996.84 996.56 996.37 996.10 996.26 996.58 997.46 998.27 998.79 999.31 1000.20 1001.26 1002.37 1003.34 1004.10 1004.90 1005.76 1006.68 1007.49 1008.29 1008.96 1009.71 1010.47 1011.21 1012.03 1012.87 1013.75 1014.59 1015.38 1016.15 1016.77 1017.28 1017.85
1004.29 1004.48 1004.84 1003.12 1001.89 1000.13 998.81 998.26 997.30 997.19 996.41 996.20 996.00 995.94 995.87 996.10 996.90 997.65 998.60 999.42 1000.09 1001.01 1002.15 1003.12 1004.22 1005.05 1005.76 1006.42 1007.17 1008.05 1008.94 1009.64 1010.36 1011.05 1011.83 1012.59 1013.35 1014.18 1014.96 1015.73 1016.39 1016.81 1017.26 1017.77
1004.62 1004.56 1004.64 1003.66 1002.26 1000.15 998.57 997.85 997.39 996.95 996.89 996.04 995.74 995.55 995.68 996.10 996.68 997.54 998.66 1000.07 1001.00 1001.80 1002.73 1003.76 1004.75 1005.53 1006.29 1006.93 1007.61 1008.43 1009.20 1009.95 1010.70 1011.44 1012.09 1012.83 1013.69 1014.69 1015.46 1016.09 1016.70 1017.18 1017.65 1018.21
1003.47 1004.61 1004.34 1003.55 1002.36 1000.66 997.86 997.36 996.72 996.37 995.79 995.76 995.88 995.68 995.91 996.42 997.38 998.31 999.38 1000.51 1001.53 1002.44 1003.38 1004.29 1005.14 1005.91 1006.62 1007.32 1007.95 1008.67 1009.53 1010.37 1011.05 1011.80 1012.67 1013.62 1014.47 1015.04 1015.55 1016.08 1016.48 1016.89 1017.54 1018.36
1001.82 1002.52 1003.29 1003.20 1001.31 1000.15 999.87 997.59 996.70 996.01 995.87 995.85 995.79 995.83 995.91 996.61 997.90 998.94 999.99 1000.91 1001.83 1002.75 1003.77 1004.60 1005.55 1006.31 1006.96 1007.60 1008.39 1009.15 1010.06 1010.87 1011.65 1012.46 1013.35 1014.05 1014.47 1014.88 1015.47 1016.22 1016.78 1017.29 1018.04 1018.80
999.97 1000.84 1001.90 1001.92 1000.56 1000.20 999.88 997.88 997.03 996.74 996.52 996.17 995.57 995.53 995.94 996.62 997.93 999.27 1000.24 1001.14 1001.96 1002.83 1003.76 1004.63 1005.70 1006.69 1007.31 1007.85 1008.63 1009.69 1010.59 1011.46 1012.06 1012.79 1013.53 1014.17 1014.74 1015.38 1015.90 1016.65 1017.22 1018.13 1018.96 1019.55
999.21 1000.08 1000.09 1000.39 999.74 999.08 998.28 997.66 997.27 997.03 996.55 996.29 996.10 996.30 996.57 996.78 997.82 999.05 1000.15 1001.11 1002.09 1003.02 1003.89 1004.85 1005.88 1006.88 1007.95 1008.83 1009.83 1010.66 1011.36 1011.81 1012.57 1013.30 1014.02 1014.82 1015.40 1015.97 1016.79 1018.05 1018.67 1019.37 1020.22 1020.47
998.58 998.54 999.04 999.14 999.25 999.25 998.93 998.35 997.81 997.81 997.46 996.89 996.37 996.83 996.90 997.03 997.93 999.26 1000.29 1001.30 1002.33 1003.32 1004.37 1005.47 1006.51 1007.35 1008.43 1009.72 1010.68 1011.30 1011.78 1012.50 1013.33 1014.13 1014.98 1015.55 1016.01 1016.50 1017.31 1018.45 1019.64 1020.27 1020.77 1021.24
Wind_Speed
16 12 15 18 18 19 16 9 21 8 6 11 19 23 23 23 17 14 11 14 12 12 9 19 18 19 16 18 17 18 19 19 14 12 6 4 4 4 3 4 7 7 5 6
16 18 18 18 19 17 14 13 18 5 11 5 9 11 21 19 19 17 16 16 17 16 17 17 19 18 18 17 18 17 17 15 10 7 7 5 6 5 7 4 6 5 7 8
19 17 19 17 18 11 14 16 16 13 6 9 10 12 4 15 16 16 18 18 18 20 22 19 20 18 18 21 20 18 18 17 14 15 10 7 7 7 7 9 8 9 7 8
20 21 17 10 13 14 15 14 13 10 14 9 6 11 7 18 15 15 14 15 14 17 21 22 21 21 20 20 21 21 19 17 14 14 10 12 9 9 6 5 6 8 9 8
18 21 17 13 15 16 12 2 10 14 14 14 14 7 5 10 13 18 16 16 16 16 19 24 24 24 24 19 20 20 21 20 18 15 13 8 9 7 4 4 5 6 6 7
21 17 16 14 15 16 9 11 14 11 11 11 15 11 6 2 6 9 18 19 16 16 18 19 23 24 23 22 19 18 18 18 18 19 17 10 7 7 8 6 3 3 4 4
20 23 20 15 17 17 9 11 9 9 9 10 17 12 5 11 18 16 15 15 20 18 14 16 20 22 22 24 23 20 22 19 16 20 16 12 10 6 6 8 8 5 4 4
17 16 21 14 17 13 12 15 8 5 3 10 15 5 7 17 9 5 2 3 10 19 18 17 17 19 21 23 24 22 22 20 17 14 19 16 15 11 8 8 6 7 7 7
16 23 18 20 14 18 14 15 15 9 3 6 13 7 7 10 6 4 4 2 5 7 19 22 21 19 19 20 22 23 21 20 17 17 16 15 15 13 10 9 9 8 7 4
18 11 18 18 18 19 16 12 12 7 5 7 8 10 3 4 5 8 4 6 3 1 5 12 12 13 17 21 23 23 23 21 19 14 13 11 10 6 5 7 8 9 6 9
19 12 12 16 17 16 10 12 8 13 11 6 4 5 7 6 12 3 5 6 5 5 1 4 5 3 8 17 14 21 20 19 16 17 13 12 8 7 7 7 7 8 10 9
21 9 14 17 12 15 18 17 17 11 9 5 1 7 8 8 16 3 1 4 5 3 2 5 4 2 4 3 3 18 19 16 13 13 15 14 11 9 7 6 5 9 9 9
19 16 8 17 19 17 16 19 14 16 11 11 8 8 1 4 3 3 7 7 9 9 7 6 4 4 3 1 1 5 9 10 15 16 14 11 10 9 9 6 6 8 7 7
8 13 18 14 12 10 16 18 17 13 8 4 10 12 15 14 2 11 11 12 10 8 9 5 9 7 5 5 4 3 6 3 9 13 12 11 7 9 8 7 6 6 6 6
5 16 20 20 19 19 18 19 19 21 22 16 15 16 15 16 12 5 21 6 4 4 2 5 4 9 8 6 6 7 8 7 9 8 13 11 10 10 9 8 7 6 6 5
5 11 14 21 21 20 24 19 22 20 20 20 18 19 16 13 7 1 17 7 8 6 5 5 7 12 10 9 7 8 10 6 6 10 12 11 9 9 6 6 5 6 8 8
12 8 14 16 16 13 22 19 17 17 19 13 16 12 10 14 8 17 19 9 9 7 5 4 5 10 11 9 11 9 8 7 6 10 10 9 9 9 8 9 9 8 7 7
2 13 10 7 1 23 9 14 16 16 15 16 18 15 12 13 12 7 4 3 7 8 8 6 6 8 10 11 10 10 10 9 10 9 9 9 10 10 8 8 8 7 6 6
8 6 3 5 14 16 17 17 12 13 16 20 22 18 16 14 14 4 3 1 6 8 9 8 8 9 10 12 12 12 11 11 11 10 10 10 10 10 10 9 9 7 8 7
10 9 4 4 12 17 6 12 13 15 16 13 13 13 13 12 5 5 11 7 10 11 10 11 11 11 11 11 12 12 12 11 11 10 11 10 11 10 10 10 8 6 6 6
6 3 10 9 7 5 7 13 15 19 8 7 9 11 9 3 2 8 11 10 11 12 13 13 12 11 12 12 12 12 12 12 12 12 11 11 11 11 10 7 7 6 5 5
8 6 5 5 4 11 6 8 15 8 17 7 9 8 3 2 9 11 13 14 14 14 14 14 12 11 11 12 12 13 12 12 12 11 11 10 9 7 7 8 6 6 6 7
8 10 6 6 3 17 19 12 10 7 8 8 8 5 5 8 9 13 13 14 15 15 14 12 11 12 11 12 11 13 12 12 11 11 11 10 9 7 7 6 5 4 6 5
5 9 4 2 7 17 20 12 8 11 11 15 10 6 4 6 13 13 13 14 14 15 14 13 14 12 11 10 11 12 12 12 12 11 10 8 7 7 6 5 4 6 5 4
6 15 13 12 14 14 21 9 6 11 9 11 6 6 7 4 14 14 14 14 14 14 13 12 12 11 10 10 11 11 10 10 10 10 8 8 5 6 9 9 6 7 6 5
8 8 6 6 8 2 4 11 7 4 10 17 4 7 7 6 11 13 12 12 12 12 11 11 11 12 11 11 9 9 8 9 9 9 7 4 4 4 7 7 7 12 11 11
Wind_Direction
215 228 235 240 239 252 282 278 256 137 214 222 264 172 195 203 172 185 158 144 158 159 152 156 153 160 174 161 171 168 176 188 195 204 195 191 189 198 214 144 243 173 203 168
229 224 240 249 264 266 277 275 279 221 191 224 281 284 172 174 173 177 172 169 173 185 163 161 159 169 166 164 173 180 182 184 190 193 198 197 187 196 206 194 194 203 199 191
223 236 234 217 251 258 259 259 268 343 233 246 263 270 208 169 186 177 175 186 183 175 164 171 169 171 166 171 182 189 185 192 195 197 205 192 187 197 192 198 198 202 193 216
236 237 262 246 248 246 242 248 289 219 275 269 300 278 190 167 178 181 183 188 191 181 169 170 175 175 185 180 184 194 201 203 197 206 220 190 202 197 184 189 175 195 181 195
236 243 239 231 240 230 242 58 296 290 264 279 267 242 264 202 194 179 189 192 190 192 183 177 179 182 184 190 187 193 200 205 190 198 217 209 198 184 181 178 183 172 169 154
241 246 236 228 238 243 232 180 233 258 261 264 267 252 222 125 322 227 183 185 193 194 191 188 179 180 184 189 193 193 204 209 190 194 212 207 190 197 176 179 214 182 163 162
228 243 227 215 227 223 217 252 242 237 238 242 249 253 223 168 205 236 177 191 185 192 198 192 184 184 185 187 189 192 198 208 209 185 197 197 192 222 191 168 184 205 173 174
225 222 235 220 241 216 211 232 233 176 312 310 325 256 245 179 171 91 84 281 196 188 188 195 200 185 188 185 185 190 195 200 205 180 188 191 190 201 197 186 173 186 181 182
226 233 217 217 211 246 216 218 243 95 250 267 241 250 222 173 157 156 187 66 274 229 194 196 198 192 181 183 183 186 189 199 202 198 185 189 204 197 194 196 189 187 181 162
238 236 253 200 201 216 244 235 243 192 201 221 261 260 6 129 235 155 208 180 104 317 241 209 196 209 187 181 181 183 190 194 193 190 184 187 207 184 193 198 181 183 153 144
233 240 238 238 196 210 214 238 221 258 237 245 267 285 111 347 338 263 172 141 126 136 96 359 346 328 197 195 194 179 184 186 192 186 166 185 194 191 192 202 187 190 149 162
218 219 250 230 210 214 247 222 224 244 220 257 288 264 181 189 210 183 235 238 133 71 94 151 158 297 334 316 196 169 182 173 179 169 179 195 179 193 181 186 185 156 163 163
193 223 216 251 222 212 226 246 230 237 239 224 165 243 296 321 274 182 196 233 166 168 207 151 144 149 184 218 316 127 157 173 165 178 184 183 183 171 170 172 150 148 149 158
199 203 219 236 231 214 233 232 208 250 248 256 283 253 253 274 16 334 278 202 201 171 183 197 162 160 169 155 162 147 125 159 142 179 166 164 125 103 99 99 101 113 129 141
189 219 217 243 241 241 220 232 237 220 227 226 223 244 258 261 187 192 240 64 118 153 235 181 182 145 144 132 135 125 86 61 88 139 121 118 115 121 122 128 132 138 139 135
227 229 233 247 254 242 266 239 230 229 238 246 248 249 241 264 108 173 269 205 181 226 223 204 189 146 144 141 162 115 96 102 101 106 114 124 136 126 146 150 164 108 109 112
224 214 226 238 237 251 259 249 246 240 238 252 254 265 257 265 234 200 224 205 234 179 144 172 208 130 133 145 122 129 121 130 125 97 108 121 125 118 102 98 94 99 111 115
230 221 223 222 237 234 258 252 255 262 269 274 278 265 259 249 265 270 58 68 133 136 147 153 122 120 120 126 128 128 144 126 120 123 116 114 112 112 115 119 114 108 113 107
334 353 347 218 229 253 248 243 250 251 256 248 246 257 260 252 247 123 111 161 136 136 136 134 132 133 126 126 136 135 134 127 122 123 124 122 122 126 119 116 115 124 124 130
269 274 241 257 217 234 218 250 237 246 258 269 266 266 260 249 179 221 141 127 123 133 144 144 139 137 139 137 132 134 134 132 128 127 123 122 124 128 123 116 118 114 112 112
196 259 259 260 243 271 205 221 245 249 241 247 329 251 258 299 343 112 129 137 148 149 144 141 148 147 146 144 141 137 133 131 128 128 131 125 111 111 118 122 121 125 128 130
160 179 227 215 244 246 289 308 231 247 230 269 286 279 318 5 103 132 143 151 159 161 155 155 154 150 148 146 143 138 134 133 127 118 112 108 109 129 146 151 154 148 123 108
173 176 193 246 265 318 292 257 290 298 299 279 307 247 264 136 143 157 162 167 169 166 159 163 151 149 151 149 145 138 131 124 115 121 134 144 153 135 125 121 133 100 92 89
220 180 203 64 271 276 274 318 278 297 303 302 286 288 262 163 157 165 169 173 168 167 173 160 154 157 154 148 139 126 129 142 150 137 131 131 120 113 106 95 66 79 58 67
192 163 189 224 235 254 287 277 257 344 306 306 302 323 319 200 168 172 176 172 174 171 167 158 154 149 141 121 122 137 151 143 132 126 118 103 108 106 83 64 48 86 54 48
225 229 226 226 260 214 321 337 332 316 328 319 243 291 280 252 168 176 177 170 174 170 155 150 149 136 132 125 129 134 133 127 125 119 105 102 93 90 118 116 87 79 115 105